Location: Newark
(46.7000°N, 60.6000°W)
Time: 08:46:13
(UTC+00:00)

Vanguard 3 - Pass Details

Date: 31 October 2020
Orbit: 508 x 3262 km, 33.3° (Epoch: 29 November)

Event Time Altitude Azimuth Distance (km) Brightness Sun altitude
Rises 09:31:57 0° 239° (WSW) 6,111 11.1 -12.7°
Reaches altitude 10° 09:35:43 10° 235° (SW) 5,394 10.9 -12.1°
Maximum altitude 09:52:10 50° 167° (SSE) 3,788 10.7 -9.3°
Drops below altitude 10° 10:10:22 10° 100° (E) 5,928 13.4 -6.3°
Sets 10:14:44 0° 95° (E) 6,730 14.1 -5.6°
